Home > Weather > Charleston > Past weeks

Flag for USA Past Weather in Charleston, South Carolina, USA — Yesterday and Last 2 Weeks

Now
76 °F

Passing clouds.


Feels Like: 76 °F
Forecast: 78 / 94 °F
Wind: 3 mph from Southwest

Location: Charleston Air Force Base Reporting Station

Current Time: Jul 26, 2016 at 8:14:32 AM

Latest Report: Jul 26, 2016 at 6:56 AM


Visibility: 10 mi

Pressure: 30.05 "Hg

Humidity: 88%

Dew Point: 72 °F

Location of CharlestonLocation

Past Weather in Charleston — Graph

°F

Charleston Temperature Yesterday

Maximum temperature yesterday: 93 °F (at 2:56 PM)
Minimum temperature yesterday: 78 °F (at 2:56 AM)
Average temperature yesterday: 84 °F

High & Low Weather Summary for the Past Weeks

 TemperatureHumidityPressure
High99 °F (Jul 13, 2:56 PM)94% (Jul 17, 10:56 PM)30.27 "Hg (Jul 17, 10:56 PM)
Low74 °F (Jul 17, 1:56 PM)34% (Jul 11, 3:56 PM)29.96 "Hg (Jul 23, 5:56 PM)
Average83 °F73%30.09 "Hg
* Reported Jul 11 5:56 AM — Jul 26 5:56 AM, Charleston, Weather by CustomWeather, © 2016

Note: Actual official high and low records may vary slightly from our data, if they occured in-between our weather recording intervals... More about our weather records

Advertising

Charleston Weather History for the Previous 24 Hours

Scroll right to see more
 ConditionsComfort  
Time TempWeatherWind HumidityBarometerVisibility
5:56 AM
Tue, Jul 26
76 °FClear.3 mph88%30.04 "Hg10 mi
4:56 AM75 °FClear.3 mph90%30.02 "Hg10 mi
3:56 AM76 °FClear.3 mph88%30.03 "Hg10 mi
2:56 AM75 °FClear.5 mph90%30.03 "Hg10 mi
1:56 AM78 °FClear.5 mph82%30.06 "Hg10 mi
12:56 AM78 °FPassing clouds.5 mph82%30.07 "Hg10 mi
11:56 PM
Mon, Jul 25
78 °FPassing clouds.8 mph82%30.06 "Hg10 mi
10:56 PM79 °FPassing clouds.8 mph79%30.06 "Hg10 mi
9:56 PM80 °FPassing clouds.6 mph76%30.05 "Hg10 mi
8:56 PM82 °FPassing clouds.7 mph72%30.03 "Hg10 mi
7:56 PM85 °FPassing clouds.14 mph65%30.02 "Hg10 mi
6:56 PM88 °FPassing clouds.14 mph55%30.01 "Hg10 mi
5:56 PM90 °FPassing clouds.13 mph54%30.01 "Hg10 mi
4:56 PM92 °FPassing clouds.14 mph49%30.01 "Hg10 mi
3:56 PM92 °FPassing clouds.15 mph51%30.03 "Hg10 mi
2:56 PM93 °FPassing clouds.15 mph50%30.04 "Hg10 mi
1:56 PM91 °FScattered clouds.13 mph56%30.05 "Hg10 mi
12:56 PM92 °FScattered clouds.9 mph56%30.06 "Hg10 mi
11:56 AM90 °FScattered clouds.3 mph57%30.08 "Hg10 mi
10:56 AM88 °FScattered clouds.6 mph63%30.08 "Hg10 mi
9:56 AM87 °FPassing clouds.5 mph65%30.09 "Hg10 mi
8:56 AM85 °FPassing clouds.3 mph75%30.09 "Hg10 mi
Weather by CustomWeather, © 2016

See weather overviewHow to use our weather pages